Theta_e
300 299 300 300 302 303 304 303 304 303 303 304 305 305 304 307 306 307 307 306 306 306 306 310 311 311 310 309 309 310 309 310 312 313 309 309 311 311 306 312 311 306 309 310
300 300 301 299 304 303 304 301 302 303 304 307 307 306 307 306 307 307 307 308 308 307 308 310 310 311 310 309 309 309 308 306 305 310 309 309 312 311 307 305 305 307 310 310
300 300 300 301 305 304 304 302 303 302 304 305 304 308 307 307 308 308 307 307 307 307 308 307 311 311 310 309 310 309 306 305 306 308 309 309 313 312 308 307 308 309 308 308
300 300 298 302 304 305 304 302 304 304 305 306 304 306 307 308 309 308 308 308 307 307 309 308 311 310 309 309 308 306 305 307 303 304 306 310 311 312 311 308 308 309 308 308
300 300 298 302 304 304 304 303 303 304 304 304 304 307 307 308 307 308 308 308 308 306 307 307 309 310 309 309 306 306 303 304 304 303 304 307 310 309 310 310 309 308 306 309
300 299 302 304 303 305 304 304 304 304 304 303 305 308 307 308 306 307 306 306 306 306 307 307 307 308 306 305 307 305 304 303 301 306 302 305 307 306 309 309 307 307 309 307
299 300 304 304 304 305 304 305 304 304 305 304 305 307 307 307 306 306 305 307 306 307 307 307 307 306 305 304 303 303 304 302 299 301 303 307 304 303 303 307 305 304 303 302
299 304 305 306 305 305 305 305 304 304 304 302 306 307 304 304 304 303 304 306 307 306 307 305 306 305 307 305 301 301 301 302 302 304 302 304 304 305 306 307 307 302 300 300
301 305 306 306 304 305 305 302 303 304 303 301 299 304 305 302 302 302 305 306 307 308 301 303 306 306 306 308 307 303 302 300 304 304 306 308 304 304 303 304 305 300 301 300
303 305 306 305 304 304 302 302 303 304 300 298 300 303 304 304 302 301 304 307 308 307 303 306 306 303 304 307 308 307 304 302 304 304 304 304 301 302 303 307 304 300 301 301
304 306 305 304 304 304 302 303 303 304 301 297 299 301 303 304 305 303 305 305 307 303 305 305 304 304 302 303 303 305 305 303 304 303 305 303 300 303 305 301 300 301 301 301
305 306 305 304 305 304 303 303 304 305 304 298 298 299 301 303 304 306 304 304 304 304 302 301 300 303 299 300 304 300 304 302 303 303 303 299 300 301 302 302 302 301 301 301
305 305 305 305 305 304 303 303 303 303 302 299 299 299 300 302 305 306 306 305 306 305 305 301 299 304 299 303 302 302 301 300 301 302 299 299 301 301 301 301 301 301 301 300
305 305 304 304 305 304 303 303 302 304 303 300 298 300 301 302 304 305 306 307 307 306 305 302 300 303 299 299 299 300 300 299 299 299 299 299 300 300 301 301 300 300 299 297
304 303 303 303 304 304 303 303 302 301 302 298 298 299 300 301 303 305 306 306 306 305 303 297 300 297 296 293 295 297 298 299 301 302 301 300 301 301 301 300 300 298 296 294
305 304 304 303 302 303 303 303 302 301 303 303 300 298 299 300 302 303 304 305 305 303 301 296 297 297 297 297 298 299 301 301 301 300 300 300 300 301 300 300 298 296 295 294
304 303 303 302 300 301 302 300 300 301 301 302 295 294 298 299 301 301 301 301 301 300 298 296 296 297 297 294 296 297 298 299 299 299 299 299 300 300 299 299 297 294 293 292
303 303 302 301 300 299 300 300 301 300 300 300 290 292 296 298 298 298 299 299 299 297 296 296 295 295 294 295 296 297 298 299 299 299 299 298 297 298 297 297 295 292 292 291
303 301 301 301 300 299 299 300 300 299 297 298 292 293 293 297 297 297 298 298 295 296 295 295 295 294 294 296 296 297 298 299 299 299 299 296 295 295 294 292 292 291 291 290
301 299 298 299 299 299 299 299 300 299 297 296 291 294 291 296 296 295 296 295 293 290 295 295 295 295 297 297 297 297 298 299 298 297 295 294 293 292 292 292 291 291 290 289
298 298 298 299 299 299 297 296 295 294 294 294 294 295 294 295 293 293 295 288 288 290 291 294 292 294 295 298 299 299 298 299 298 297 294 292 292 292 292 292 291 290 289 289
298 298 298 298 298 296 289 285 290 292 293 292 293 295 296 296 296 295 294 291 289 291 292 294 292 291 296 298 298 299 299 299 298 295 292 292 292 292 291 290 289 289 289 288
297 297 299 296 293 289 288 289 288 289 292 293 294 294 296 295 295 294 290 290 291 293 293 290 290 294 297 298 298 298 298 298 295 293 292 291 292 292 290 289 289 288 288 288
297 297 293 292 287 289 290 289 289 293 294 294 296 294 294 294 293 293 289 294 293 290 289 290 286 295 297 298 298 298 297 295 293 292 291 292 292 290 289 288 288 289 288 288
297 294 293 289 293 291 290 292 294 293 295 296 294 293 294 291 291 294 293 293 290 288 290 288 295 296 297 298 297 296 295 294 292 292 292 292 290 288 288 289 289 288 288 288
294 293 288 289 290 288 290 291 293 294 295 295 294 290 289 290 291 290 289 289 289 289 285 295 297 297 297 297 297 296 295 293 292 292 291 289 288 289 289 289 288 288 287 286
294 292 292 291 292 292 292 293 294 294 295 289 289 288 291 288 285 289 287 288 288 293 295 297 298 297 297 297 296 295 293 292 291 290 289 288 288 288 288 288 287 286 285 285
Wind_Speed
35 36 36 39 43 19 22 12 4 23 26 4 3 2 4 4 3 1 2 5 5 4 2 3 2 0 2 6 2 2 2 4 4 1 3 3 2 1 2 3 1 3 2 0
34 32 33 38 19 16 13 7 9 21 19 2 3 2 1 3 3 1 1 4 3 2 4 3 2 1 2 4 2 2 2 2 3 7 4 1 3 3 3 4 3 0 3 2
31 30 34 33 11 9 15 6 3 6 8 3 3 2 3 3 3 3 5 5 4 4 4 3 4 2 3 4 3 7 4 4 2 5 3 1 3 3 4 4 3 3 1 4
29 29 32 28 19 9 8 5 4 4 3 2 1 3 4 5 3 4 4 5 4 4 3 2 3 2 4 3 7 4 3 4 3 5 6 4 3 3 2 4 2 3 4 7
27 27 27 18 9 5 7 4 3 3 3 5 2 3 2 4 2 2 3 7 2 4 4 1 2 3 3 1 5 4 4 2 2 5 6 5 3 5 2 3 2 2 5 2
24 25 16 15 3 9 5 6 11 5 4 3 0 2 3 4 6 7 7 9 6 6 1 5 9 14 10 6 3 3 3 4 3 1 4 1 4 1 1 2 2 2 3 3
24 21 17 7 9 20 6 8 4 3 3 2 2 2 4 3 3 7 4 7 5 6 20 15 12 17 17 16 9 4 4 3 2 1 3 3 3 2 3 2 3 2 3 2
23 21 12 4 17 27 10 5 4 4 3 2 2 4 6 8 14 6 6 7 10 13 4 4 4 4 3 6 6 7 4 4 3 3 1 3 2 1 2 1 2 2 4 3
21 16 9 2 23 22 5 7 4 5 8 1 1 2 5 4 3 5 5 9 10 3 3 3 3 1 1 3 4 2 5 6 4 1 2 1 3 2 2 2 3 5 7 6
17 8 5 14 19 17 9 10 7 6 8 5 4 3 2 5 6 4 2 1 3 5 3 3 2 0 1 2 2 2 3 3 3 1 1 5 3 2 1 2 3 7 7 8
14 3 9 18 24 15 11 19 10 4 7 10 6 4 4 4 4 4 5 3 3 3 3 2 1 2 1 2 1 2 3 3 2 2 1 5 2 1 4 2 4 9 9 8
7 10 7 14 24 12 13 20 12 10 8 11 17 17 12 9 7 12 5 3 2 3 4 1 3 2 1 2 1 1 1 4 3 6 4 2 6 4 4 7 8 9 8 7
1 11 13 17 24 11 12 16 14 16 17 12 5 9 11 8 9 10 4 4 3 3 4 6 2 3 2 2 3 1 2 3 2 1 3 6 8 9 8 7 6 7 8 8
5 9 11 16 18 16 9 11 11 8 7 5 6 7 9 8 5 5 5 8 9 9 5 4 2 2 4 3 2 3 3 5 4 4 6 5 12 13 11 10 9 8 9 8
8 5 9 14 17 18 7 5 6 8 3 5 5 9 10 10 8 7 10 10 9 4 3 3 1 2 3 1 1 3 8 6 5 5 4 3 2 4 15 12 10 9 9 9
13 4 11 14 15 15 9 1 2 3 6 5 3 2 4 8 8 7 8 8 5 3 3 3 3 2 1 2 3 6 13 10 8 1 2 7 4 3 12 11 9 8 9 11
17 6 12 18 16 15 7 3 4 4 3 2 4 3 2 4 5 3 5 5 4 3 3 3 2 2 2 1 3 4 10 9 8 8 5 3 5 3 8 9 8 8 10 11
16 9 16 17 16 8 4 2 9 5 2 3 3 2 1 2 2 2 3 3 3 4 3 2 2 2 1 3 10 5 7 7 6 9 7 3 4 6 6 8 9 10 12 14
12 16 13 15 12 4 2 8 9 3 0 4 3 4 3 5 2 2 2 2 2 1 1 1 1 1 4 6 6 12 13 9 6 9 7 5 4 4 5 7 9 14 17 19
15 20 6 6 10 8 11 5 5 2 3 2 3 5 1 5 2 2 2 2 1 0 1 0 2 4 14 10 5 5 12 11 7 9 6 6 6 6 7 10 14 17 20 21
21 6 3 12 15 8 2 2 2 1 1 4 5 5 4 6 3 2 2 2 0 1 3 3 2 3 4 3 9 6 11 13 6 5 3 2 3 6 11 15 18 20 20 21
8 3 13 12 4 2 3 2 3 2 4 7 9 8 5 6 4 4 3 3 2 3 3 1 3 4 4 4 9 8 11 12 8 6 4 4 7 11 16 19 20 19 20 22
13 4 7 5 1 4 6 6 4 2 11 13 10 4 7 5 4 4 2 3 3 5 0 3 4 3 4 7 8 10 11 10 7 6 6 7 11 15 18 18 17 19 21 23
5 5 4 5 3 6 6 4 4 6 8 24 22 9 4 4 3 3 4 2 3 1 2 5 3 3 7 10 10 10 9 7 7 7 7 10 15 17 16 16 18 22 25 29
5 4 5 6 7 2 3 7 8 7 22 33 12 6 4 1 3 2 3 3 3 5 5 3 4 6 9 11 11 10 7 6 6 7 10 14 15 14 15 17 22 26 30 32
5 7 2 4 1 2 6 11 8 19 31 16 6 3 3 2 4 3 7 7 6 4 4 7 7 6 8 10 10 8 6 5 6 9 13 13 13 16 20 24 28 29 28 27
6 6 10 8 5 4 8 14 14 27 27 3 4 5 7 3 2 2 4 5 4 7 10 11 8 7 8 10 9 6 4 5 8 10 10 12 15 20 24 28 26 24 23 24
Wind_Direction
333 334 336 336 343 127 115 85 94 157 158 126 177 182 188 133 209 69 82 93 95 112 132 84 79 39 284 353 281 18 321 102 66 186 242 247 220 116 97 102 194 59 73 240
333 338 339 337 354 152 96 70 84 156 165 133 161 301 155 133 191 70 107 95 82 95 108 97 74 325 341 16 78 152 198 19 54 352 358 123 53 21 101 89 61 30 114 198
337 342 343 348 128 141 100 83 103 131 202 90 110 223 143 109 80 70 71 103 70 90 48 40 132 83 350 11 56 52 87 69 115 172 208 93 87 61 36 75 74 151 157 156
340 342 347 1 158 109 72 56 56 135 186 160 146 303 133 132 109 59 51 48 98 121 91 84 92 44 5 25 9 51 76 92 82 30 9 18 37 44 31 67 134 111 183 158
339 341 344 8 140 146 37 83 110 140 82 106 125 283 145 105 81 75 58 109 102 78 105 144 123 120 46 26 355 58 14 130 90 27 15 25 54 4 54 38 65 47 112 113
338 336 343 352 286 147 74 64 106 127 103 75 167 276 124 146 132 43 68 133 98 70 60 117 96 90 76 66 49 63 65 118 63 11 339 8 44 23 141 63 29 137 148 311
336 334 332 316 227 185 93 87 82 96 83 104 243 351 87 82 18 120 59 74 95 126 118 99 86 77 71 57 31 30 112 89 59 199 0 35 230 263 221 168 203 157 121 84
337 340 329 238 188 183 136 55 51 73 90 43 4 56 103 75 66 61 69 38 119 144 93 63 41 0 34 13 32 15 50 108 77 102 165 273 94 302 107 100 356 176 120 92
340 349 359 194 170 181 138 33 80 113 124 56 347 47 106 104 66 30 48 80 118 77 72 66 78 79 310 358 356 34 47 60 94 96 87 239 235 278 273 241 322 169 149 159
349 359 110 144 155 164 91 57 91 120 103 44 47 63 84 115 96 93 45 46 63 36 54 65 87 52 234 58 51 348 21 18 105 94 205 284 251 263 283 121 235 170 166 166
358 95 109 154 145 112 74 56 76 116 101 60 87 97 107 112 106 123 158 80 8 47 66 105 143 104 217 73 214 195 177 130 162 85 73 307 176 115 174 199 155 175 177 182
21 168 119 155 158 124 73 56 66 97 93 112 88 81 84 89 105 123 124 128 133 148 98 87 122 108 69 147 279 40 263 180 185 179 216 235 212 215 216 177 184 188 203 224
107 150 165 171 182 172 90 68 56 94 99 80 82 66 71 81 119 133 131 155 135 124 112 143 138 102 138 165 243 230 238 185 202 37 218 232 234 227 212 206 209 214 232 248
136 148 165 173 178 177 108 63 41 78 94 100 53 69 64 66 98 132 129 148 138 131 112 92 112 131 191 204 218 200 199 139 182 264 266 277 246 228 216 208 219 228 238 249
132 125 173 173 187 191 154 71 37 22 82 129 121 90 64 69 75 107 127 138 136 129 95 75 149 140 127 41 28 252 190 185 172 222 204 163 237 270 216 217 230 242 255 268
172 126 163 159 152 172 150 126 305 19 85 109 118 124 103 100 101 119 128 130 115 97 97 116 127 133 107 138 231 253 204 208 216 216 259 225 284 254 205 220 238 257 271 281
182 157 172 159 154 160 174 161 194 176 79 100 86 360 155 137 126 101 76 87 87 76 93 69 108 141 157 176 233 271 212 218 232 241 224 208 219 219 216 229 251 266 280 290
188 179 168 162 162 145 148 139 171 165 75 99 107 299 353 167 99 81 56 67 80 51 99 111 118 143 143 253 242 237 193 185 193 183 197 234 276 242 240 245 273 284 291 301
165 159 153 150 175 210 168 144 162 146 127 129 109 142 220 156 99 104 103 87 53 27 94 114 132 202 228 227 231 208 199 188 189 193 216 244 245 241 253 272 288 299 308 313
154 142 166 173 171 146 129 135 164 225 243 156 110 136 158 158 134 81 102 37 102 148 293 156 205 258 260 255 248 222 202 193 181 182 216 240 249 264 283 296 305 310 313 312
158 201 220 154 147 146 173 159 156 209 304 180 140 154 142 177 122 156 163 175 316 96 252 146 270 271 250 252 197 200 188 194 196 209 253 269 272 297 308 312 312 313 314 317
201 219 136 135 176 153 96 241 318 200 223 165 150 163 137 146 146 110 166 131 64 219 152 168 264 252 239 191 188 190 187 192 205 223 244 272 302 313 315 315 316 317 321 323
161 202 182 169 164 43 161 201 249 233 169 169 161 143 147 137 142 95 104 94 199 121 131 234 232 248 200 179 174 174 181 191 205 225 252 289 312 318 317 318 319 320 322 323
255 212 203 172 215 241 199 189 182 158 165 157 149 121 142 133 105 141 99 171 103 100 294 237 246 229 189 186 182 187 191 204 222 242 272 304 314 317 319 320 320 320 322 321
272 234 225 207 213 182 206 175 149 153 159 152 123 102 134 117 111 171 124 155 231 208 229 229 186 167 181 188 192 199 205 222 243 269 295 309 314 316 313 315 315 317 316 315
258 246 284 207 103 195 203 189 170 159 161 149 130 116 95 203 150 135 212 141 211 232 214 180 160 161 172 181 189 200 217 240 266 291 305 310 313 311 311 314 317 318 321 323
233 257 258 235 282 217 193 185 176 168 164 178 137 134 195 97 67 241 203 203 211 172 156 153 150 150 157 169 182 195 220 264 293 301 307 311 313 313 315 316 323 328 331 327